Location: Little Baddow
(51.7333°N, 0.5667°E)
Time: 06:20:51
(UTC+00:00)

Cosmos 2333 Rocket - Pass Details

Date: 08 November 2025
Orbit: 837 x 865 km, 70.8° (Epoch: 11 December)

Event Time Altitude Azimuth Distance (km) Brightness Sun altitude
Exits shadow 05:21:31 20° 307° (NW) 1,882 3.5 -16.1°
Maximum altitude 05:22:52 22° 326° (NNW) 1,806 3.6 -15.8°
Drops below altitude 10° 05:27:16 10° 16° (NNE) 2,511 4.8 -15.2°
Sets 05:30:21 0° 32° (NNE) 3,454 5.7 -14.7°
